Regional Weather Roundup
Issued by NWS

Home | Current Version | Previous Version | Graphics & Text | Print | Product List | Glossary On
Versions: 1 2 3 4 5 6 7 8 9 10 11 12 13 14 15 16 17 18 19 20 21 22 23 24 25 26 27 28 29 30 31 32 33 34 35 36 37 38 39 40 41 42 43 44 45 46 47 48 49 50
000
ASUS43 KFSD 281802
RWRSD

WEATHER ROUNDUP FOR SOUTH DAKOTA
NATIONAL WEATHER SERVICE SIOUX FALLS SD
100 PM CDT FRI APR 28 2017

NOTE: "FAIR" INDICATES FEW OR NO CLOUDS BELOW 12,000 FEET WITH NO
SIGNIFICANT WEATHER AND/OR OBSTRUCTIONS TO VISIBILITY.


SDZ001>005-009-010-012>017-281900-
NORTHWEST AND NORTH CENTRAL SOUTH DAKOTA

CITY           SKY/WX    TMP DP  RH WIND       PRES   REMARKS
BUFFALO          N/A     47  26  44 NE12      29.93R
FAITH            N/A     47  29  49 NE13G20   29.98R
MOBRIDGE       SUNNY     52  18  26 NE17G24   29.98R
$$

SDZ012>016-024>037-041>051-057-063-072>074-281900-
SOUTHWEST AND SOUTH CENTRAL SOUTH DAKOTA

CITY           SKY/WX    TMP DP  RH WIND       PRES   REMARKS
RAPID CTY ARPT CLOUDY    43  28  55 E13       29.96R
PIERRE         CLOUDY    49  24  37 E16G23    29.97S
CUSTER         CLOUDY    29  23  78 NE18G25   29.87R WCI  16
ELLSWORTH AFB  PTSUNNY   43  28  54 E14G21    29.95R
PHILIP         PTSUNNY   45  31  58 NE17G24   29.97R
PINE RIDGE     CLOUDY    40  32  73 E16       29.91R
SPEARFISH      PTSUNNY   39  28  65 E13G20    29.96R
WINNER         MOCLDY    47  29  49 NE20      29.94R
$$

SDZ004>011-016>023-039-040-281900-
NORTHEAST SOUTH DAKOTA

CITY           SKY/WX    TMP DP  RH WIND       PRES   REMARKS
ABERDEEN       SUNNY     50  20  30 NE18G26   30.00R
WATERTOWN      MOSUNNY   45  26  47 NE23      29.95R
BROOKINGS      PTSUNNY   44  27  51 NE15G21   29.94F
SISSETON         N/A     50  26  39 NE17G25   29.98S
$$

SDZ017-020-022-023-036>040-048>070-281900-
SOUTHEAST SOUTH DAKOTA

CITY           SKY/WX    TMP DP  RH WIND       PRES   REMARKS
SIOUX FALLS    CLOUDY    44  30  57 NE14G21   29.93F
HURON          CLOUDY    49  26  41 NE14      29.96F
CHAMBERLAIN    PTSUNNY   48  26  41 NE15G21   29.96R
MITCHELL       CLOUDY    48  26  42 NE15G23   29.95F
YANKTON        PTSUNNY   43  28  56 NE16      29.92S
$$

ABBREVIATIONS USED IN REMARKS
   TC - TEMPERATURE IN CELSIUS
  WCI - WIND CHILL INDEX
   HX - HEAT INDEX
  VSB - VISIBILITY





USA.gov is the U.S. government's official web portal to all federal, state and local government web resources and services.